Location: La Brionne
(46.1728°N, 1.7849°E)
Time: 17:50:36
(UTC+00:00)

Cosmos 1544 Rocket - Pass Details

Date: 29 October 2021
Orbit: 603 x 632 km, 82.5° (Epoch: 27 November)

Event Time Altitude Azimuth Distance (km) Brightness Sun altitude
Rises 17:06:02 0° 177° (S) 2,911 7.2 -4.7°
Reaches altitude 10° 17:08:17 10° 174° (S) 2,007 6.3 -5.0°
Maximum altitude 17:12:40 60° 95° (E) 725 3.7 -5.8°
Drops below altitude 10° 17:17:04 10° 16° (NNE) 2,014 5.9 -6.5°
Sets 17:19:19 0° 13° (NNE) 2,922 6.8 -6.9°
